This is the latest recevied weather packets stored in our database for station/object AI9F. If no packets are shown the sender has not sent any weather packets the latest 10 day(s).
| Time | Temp. | Humidity | Pressure | Rain* | Wind** | Luminosity | Snow |
|---|---|---|---|---|---|---|---|
| 1777945171 | 21.67° C | 48% | 1005 hPa | 0 mm | - | 0 W/m² | - |
| 1777944868 | 21.67° C | 47% | 1005 hPa | 0 mm | - | 0 W/m² | - |
| 1777944566 | 21.67° C | 46% | 1005.4 hPa | 0 mm | - | 0 W/m² | - |
| 1777944264 | 22.22° C | 46% | 1005 hPa | 0 mm | - | 0 W/m² | - |
| 1777943960 | 22.22° C | 45% | 1005.1 hPa | 0 mm | - | 0 W/m² | - |
| 1777943656 | 22.22° C | 45% | 1005.2 hPa | 0 mm | - | 0 W/m² | - |
| 1777943353 | 22.22° C | 46% | 1005 hPa | 0 mm | - | 0 W/m² | - |
| 1777943049 | 22.22° C | 45% | 1005 hPa | 0 mm | - | 0 W/m² | - |
| 1777942744 | 22.22° C | 45% | 1005.1 hPa | 0 mm | - | 0 W/m² | - |
| 1777942442 | 22.22° C | 44% | 1004.7 hPa | 0 mm | - | 0 W/m² | - |
| 1777942139 | 22.22° C | 44% | 1004.4 hPa | 0 mm | - | 0 W/m² | - |
| 1777941835 | 22.22° C | 45% | 1004.2 hPa | 0 mm | - | 1 W/m² | - |
| 1777941533 | 22.22° C | 45% | 1003.9 hPa | 0 mm | - | 1 W/m² | - |
| 1777941230 | 22.78° C | 43% | 1004.3 hPa | 0 mm | - | 2 W/m² | - |
| 1777940925 | 22.78° C | 43% | 1004 hPa | 0 mm | - | 4 W/m² | - |
| 1777940623 | 22.78° C | 43% | 1003.9 hPa | 0 mm | - | 6 W/m² | - |
| 1777940321 | 22.78° C | 42% | 1003.9 hPa | 0 mm | - | 9 W/m² | - |
| 1777940018 | 22.78° C | 42% | 1003.7 hPa | 0 mm | - | 12 W/m² | - |
| 1777939715 | 22.78° C | 43% | 1003.5 hPa | 0 mm | - | 12 W/m² | - |
| 1777939413 | 22.78° C | 42% | 1003.7 hPa | 0 mm | - | 12 W/m² | - |
| 1777939109 | 23.33° C | 41% | 1003.5 hPa | 0 mm | - | 14 W/m² | - |
| 1777938807 | 23.33° C | 40% | 1003.4 hPa | 0 mm | - | 19 W/m² | - |
| 1777938503 | 23.89° C | 40% | 1003.4 hPa | 0 mm | - | 29 W/m² | - |
| 1777938201 | 24.44° C | 39% | 1003.5 hPa | 0 mm | - | 64 W/m² | - |
| 1777937897 | 24.44° C | 38% | 1003.6 hPa | 0 mm | - | 73 W/m² | - |
* Rain latest hour (hover to see other rain measurements)
** Current wind speed in m/s (hover to see current wind gust speed)